Date String (YYYY-MM-DD hh:mm:ss) UTC,Instrument flags,absolute air pressure of the measurement (hPa),sample flow rate (lpm),inlet stack bypass flow (lpm),air temperature of the measurement (°C),ambient temperature measured by the external sensor (°C),aerosol sample conditioner tube jacket temperature (°C),OPC LED temperature (°C),internal box temperature (°C),relative humidity of the measurement (%),span deviation,mass concentration of particles derived from Lorenz-Mie calculation of OPC scattering (μg/m³),mass concentration of particles derived from Lorenz-Mie calculation of OPC scattering (μg/m³),mass concentration of particles derived from Lorenz-Mie calculation of OPC scattering (μg/m³)
DateTimeUTC,F1_M11,P_M11,Q1_M11,Q2_M11,T1_M11,T2_M11,T3_M11,T4_M11,T5_M11,U1_M11,ZSPAN_M11,X0_M11,X2_M11,X1_M11
2023-09-07 19:00:00,SystemResetWarning,0832.2,5.00,000.00,027.8,026.4,000.0,036.0,029.5,14.1,0000.0,0003.58,0001.65,0000.98
2023-09-07 19:01:00,SystemResetWarning,0832.2,5.00,000.00,027.8,026.5,000.0,036.0,029.5,14.6,0000.0,0003.66,0001.66,0000.98
2023-09-07 19:02:00,SystemResetWarning,0832.2,4.98,000.00,027.8,025.3,000.0,035.9,029.1,13.3,0000.0,0004.01,0001.68,0000.99
2023-09-07 19:03:00,SystemResetWarning,0832.1,5.01,000.00,027.7,024.5,000.0,035.9,029.0,12.5,0000.0,0005.06,0001.70,0000.98
2023-09-07 19:04:00,SystemResetWarning,0832.0,5.02,000.00,027.6,024.8,000.0,035.9,029.1,11.8,0000.0,0005.51,0001.65,0000.96
2023-09-07 19:05:00,SystemResetWarning,0832.0,4.98,000.00,027.6,025.1,000.0,035.9,029.1,11.8,0000.0,0005.46,0001.54,0000.95
2023-09-07 19:06:00,SystemResetWarning,0832.0,5.00,000.00,027.7,025.5,000.0,035.9,029.2,13.2,0000.0,0005.24,0001.53,0000.94
2023-09-07 19:07:00,SystemResetWarning,0832.0,5.02,000.00,027.7,025.9,000.0,035.9,029.3,12.9,0000.0,0005.24,0001.53,0000.93
2023-09-07 19:08:00,SystemResetWarning,0832.1,5.00,000.00,027.7,026.2,000.0,035.9,029.4,12.3,0000.0,0005.49,0001.57,0000.94
2023-09-07 19:09:00,SystemResetWarning,0832.1,4.99,000.00,027.8,026.3,000.0,035.9,029.5,12.3,0000.0,0005.33,0001.53,0000.93
2023-09-07 19:10:00,SystemResetWarning,0832.1,4.99,000.00,027.7,025.2,000.0,035.9,029.1,12.7,0000.0,0006.66,0001.52,0000.94
2023-09-07 19:11:00,SystemResetWarning,0832.0,5.01,000.00,027.6,024.4,000.0,035.8,028.9,14.6,0000.0,0006.71,0001.50,0000.94
2023-09-07 19:12:00,SystemResetWarning,0832.1,5.01,000.00,027.6,024.6,000.0,035.8,029.0,14.6,0000.0,0006.67,0001.47,0000.92
2023-09-07 19:13:00,SystemResetWarning,0832.1,5.00,000.00,027.6,025.0,000.0,035.8,029.0,14.1,0000.0,0007.45,0001.49,0000.91
2023-09-07 19:14:00,SystemResetWarning,0832.1,5.00,000.00,027.6,025.4,000.0,035.8,029.1,14.6,0000.0,0008.01,0001.42,0000.88
2023-09-07 19:15:00,SystemResetWarning,0832.1,5.00,000.00,027.6,025.8,000.0,035.9,029.3,14.9,0000.0,0007.53,0001.34,0000.87
2023-09-07 19:16:00,SystemResetWarning,0832.2,5.00,000.00,027.7,026.2,000.0,035.9,029.4,15.1,0000.0,0007.44,0001.38,0000.85
2023-09-07 19:17:00,SystemResetWarning,0832.1,5.00,000.00,027.7,026.5,000.0,035.9,029.5,14.9,0000.0,0007.41,0001.37,0000.84
2023-09-07 19:18:00,SystemResetWarning,0832.1,4.99,000.00,027.8,025.9,000.0,035.9,029.3,14.6,0000.0,0007.45,0001.34,0000.84
2023-09-07 19:19:00,SystemResetWarning,0832.1,4.99,000.00,027.6,024.6,000.0,035.9,028.9,13.5,0000.0,0007.37,0001.30,0000.84
2023-09-07 19:20:00,SystemResetWarning,0832.1,5.02,000.00,027.6,024.5,000.0,035.8,028.9,13.2,0000.0,0007.38,0001.31,0000.84
2023-09-07 19:21:00,SystemResetWarning,0832.1,5.00,000.00,027.6,024.9,000.0,035.8,029.0,12.5,0000.0,0006.85,0001.31,0000.84
2023-09-07 19:22:00,SystemResetWarning,0832.1,5.00,000.00,027.6,025.2,000.0,035.8,029.0,12.5,0000.0,0005.82,0001.31,0000.86
2023-09-07 19:23:00,SystemResetWarning,0832.1,5.00,000.00,027.6,025.6,000.0,035.8,029.2,12.3,0000.0,0005.83,0001.33,0000.85
2023-09-07 19:24:00,SystemResetWarning,0832.1,5.00,000.00,027.6,026.0,000.0,035.8,029.3,11.5,0000.0,0005.78,0001.31,0000.85
2023-09-07 19:25:00,SystemResetWarning,0832.1,4.99,000.00,027.7,026.4,000.0,035.9,029.4,11.6,0000.0,0003.58,0001.29,0000.84
2023-09-07 19:26:00,SystemResetWarning,0832.0,4.99,000.00,027.7,026.5,000.0,035.9,029.5,11.9,0000.0,0003.35,0001.33,0000.83
2023-09-07 19:27:00,SystemResetWarning,0832.0,4.99,000.00,027.7,025.3,000.0,035.9,029.0,11.6,0000.0,0003.36,0001.35,0000.84
2023-09-07 19:28:00,SystemResetWarning,0832.0,5.00,000.00,027.6,024.4,000.0,035.8,028.8,11.2,0000.0,0003.34,0001.37,0000.84
2023-09-07 19:29:00,SystemResetWarning,0832.0,5.01,000.00,027.6,024.7,000.0,035.8,028.9,11.7,0000.0,0003.33,0001.37,0000.84
2023-09-07 19:30:00,SystemResetWarning,0832.1,5.00,000.00,027.5,025.0,000.0,035.8,028.9,11.7,0000.0,0003.32,0001.45,0000.85
2023-09-07 19:31:00,SystemResetWarning,0832.0,5.00,000.00,027.6,025.4,000.0,035.8,029.1,11.8,0000.0,0003.25,0001.44,0000.86
2023-09-07 19:32:00,SystemResetWarning,0832.0,4.99,000.00,027.6,025.8,000.0,035.8,029.2,11.5,0000.0,0003.34,0001.46,0000.85
2023-09-07 19:33:00,SystemResetWarning,0832.0,5.00,000.00,027.7,026.2,000.0,035.8,029.4,11.7,0000.0,0003.68,0001.50,0000.84
2023-09-07 19:34:00,SystemResetWarning,0832.0,5.00,000.00,027.7,026.3,000.0,035.9,029.4,12.1,0000.0,0004.33,0001.57,0000.88
2023-09-07 19:35:00,SystemResetWarning,0832.0,4.98,000.00,027.7,025.2,000.0,035.8,029.0,11.7,0000.0,0004.29,0001.67,0000.94
2023-09-07 19:36:00,SystemResetWarning,0831.9,5.01,000.00,027.6,024.4,000.0,035.8,028.8,11.5,0000.0,0004.81,0001.80,0001.00
2023-09-07 19:37:00,SystemResetWarning,0831.9,5.01,000.00,027.5,024.6,000.0,035.8,028.9,11.7,0000.0,0007.43,0001.94,0001.07
2023-09-07 19:38:00,SystemResetWarning,0831.9,5.00,000.00,027.5,024.9,000.0,035.7,028.9,11.5,0000.0,0008.12,0001.96,0001.11
2023-09-07 19:39:00,SystemResetWarning,0831.9,4.99,000.00,027.5,025.3,000.0,035.7,029.0,11.1,0000.0,0008.01,0001.92,0001.12
2023-09-07 19:40:00,SystemResetWarning,0831.9,5.00,000.00,027.6,025.7,000.0,035.8,029.2,11.4,0000.0,0007.95,0001.89,0001.12
2023-09-07 19:41:00,SystemResetWarning,0832.0,5.01,000.00,027.6,026.1,000.0,035.8,029.3,11.3,0000.0,0007.84,0001.82,0001.12
2023-09-07 19:42:00,SystemResetWarning,0832.0,5.00,000.00,027.7,026.5,000.0,035.8,029.4,11.1,0000.0,0008.58,0001.94,0001.14
2023-09-07 19:43:00,SystemResetWarning,0832.0,4.99,000.00,027.7,026.6,000.0,035.8,029.5,10.9,0000.0,0008.90,0002.00,0001.17
2023-09-07 19:44:00,SystemResetWarning,0832.0,4.99,000.00,027.7,025.5,000.0,035.8,029.1,11.3,0000.0,0008.76,0001.98,0001.18
2023-09-07 19:45:00,SystemResetWarning,0831.9,5.00,000.00,027.6,024.4,000.0,035.8,028.9,11.4,0000.0,0008.44,0001.94,0001.15
2023-09-07 19:46:00,SystemResetWarning,0831.9,5.00,000.00,027.6,024.7,000.0,035.7,029.0,11.6,0000.0,0008.84,0001.88,0001.12
2023-09-07 19:47:00,SystemResetWarning,0831.9,5.01,000.00,027.6,025.0,000.0,035.8,029.1,11.7,0000.0,0009.60,0001.96,0001.12
2023-09-07 19:48:00,SystemResetWarning,0831.9,5.00,000.00,027.6,025.4,000.0,035.8,029.1,11.5,0000.0,0008.22,0001.93,0001.11
2023-09-07 19:49:00,SystemResetWarning,0831.9,5.00,000.00,027.6,025.8,000.0,035.8,029.3,11.5,0000.0,0007.66,0001.98,0001.12
2023-09-07 19:50:00,SystemResetWarning,0832.0,5.00,000.00,027.7,026.2,000.0,035.8,029.4,11.4,0000.0,0007.85,0002.09,0001.18
2023-09-07 19:51:00,SystemResetWarning,0832.0,4.99,000.00,027.7,026.5,000.0,035.8,029.5,10.9,0000.0,0008.69,0002.26,0001.24
2023-09-07 19:52:00,SystemResetWarning,0831.9,4.98,000.00,027.8,026.2,000.0,035.9,029.4,10.6,0000.0,0009.59,0002.42,0001.30
2023-09-07 19:53:00,SystemResetWarning,0831.8,5.01,000.00,027.7,024.8,000.0,035.8,028.9,10.4,0000.0,0010.19,0002.51,0001.35
2023-09-07 19:54:00,SystemResetWarning,0831.8,5.01,000.00,027.6,024.5,000.0,035.8,028.9,10.5,0000.0,0010.43,0002.52,0001.35
2023-09-07 19:55:00,SystemResetWarning,0831.8,5.01,000.00,027.6,024.8,000.0,035.8,029.0,10.8,0000.0,0010.41,0002.51,0001.37
2023-09-07 19:56:00,SystemResetWarning,0831.9,4.99,000.00,027.6,025.2,000.0,035.8,029.1,11.0,0000.0,0010.41,0002.51,0001.37
2023-09-07 19:57:00,SystemResetWarning,0831.9,5.00,000.00,027.6,025.6,000.0,035.8,029.2,11.1,0000.0,0010.30,0002.52,0001.36
2023-09-07 19:58:00,SystemResetWarning,0831.9,5.01,000.00,027.6,026.0,000.0,035.8,029.3,11.3,0000.0,0008.80,0002.34,0001.31
2023-09-07 19:59:00,SystemResetWarning,0831.9,5.00,000.00,027.7,026.3,000.0,035.8,029.4,10.9,0000.0,0008.68,0002.20,0001.26
